TimeAST,TemperatureF,Dew PointF,Humidity,Sea Level PressureIn,VisibilityMPH,Wind Direction,Wind SpeedMPH,Gust SpeedMPH,PrecipitationIn,Events,Conditions,WindDirDegrees,DateUTC
12:00 AM,82.4,75.2,79,30.01,6.2,ENE,16.1,-,N/A,,Scattered Clouds,70,2013-08-25 04:00:00
1:00 AM,82.4,75.2,79,29.98,6.2,East,15.0,-,N/A,,Unknown,90,2013-08-25 05:00:00
2:00 AM,83,74,68,29.98,16,East,19.6,,,,Partly Cloudy,90,2013-08-25 06:00:00
2:00 AM,82.4,73.4,74,29.98,6.2,East,19.6,-,N/A,,Scattered Clouds,90,2013-08-25 06:00:00
3:00 AM,82.4,73.4,74,29.98,6.2,ENE,15.0,-,N/A,,Scattered Clouds,70,2013-08-25 07:00:00
4:00 AM,80.6,75.2,84,29.98,6.2,East,10.4,-,N/A,Rain,Light Rain Showers,90,2013-08-25 08:00:00
5:00 AM,82,74,69,29.98,16,East,11.5,,,Rain,Light Rain Showers,80,2013-08-25 09:00:00
5:00 AM,82.4,73.4,74,29.98,6.2,East,11.5,-,N/A,,Partly Cloudy,80,2013-08-25 09:00:00
7:00 AM,84.2,73.4,70,29.98,6.2,ENE,11.5,-,N/A,,Partly Cloudy,70,2013-08-25 11:00:00
8:00 AM,80,74,77,30.02,6,ENE,9.2,,,Rain,Light Rain Showers,70,2013-08-25 12:00:00
8:00 AM,80.6,75.2,84,30.01,6.2,ENE,9.2,21.9,N/A,,Scattered Clouds,70,2013-08-25 12:00:00
9:00 AM,86.0,75.2,70,30.01,6.2,ENE,17.3,-,N/A,,Scattered Clouds,70,2013-08-25 13:00:00
10:00 AM,87.8,75.2,66,30.01,6.2,ENE,15.0,-,N/A,,Scattered Clouds,70,2013-08-25 14:00:00
11:00 AM,87,74,56,30.03,19,ENE,13.8,,,,Partly Cloudy,70,2013-08-25 15:00:00
11:00 AM,87.8,73.4,62,30.01,6.2,ENE,13.8,-,N/A,,Scattered Clouds,70,2013-08-25 15:00:00
12:00 PM,87.8,71.6,58,30.01,6.2,East,13.8,-,N/A,,Scattered Clouds,90,2013-08-25 16:00:00
1:00 PM,87.8,73.4,62,29.98,6.2,ENE,17.3,-,N/A,,Mostly Cloudy,70,2013-08-25 17:00:00
2:00 PM,88,73,52,29.98,19,ENE,13.8,,,,Partly Cloudy,70,2013-08-25 18:00:00
2:00 PM,87.8,73.4,62,29.98,6.2,ENE,13.8,-,N/A,,Scattered Clouds,70,2013-08-25 18:00:00
3:00 PM,87.8,71.6,58,29.95,6.2,East,12.7,-,N/A,,Scattered Clouds,100,2013-08-25 19:00:00
4:00 PM,86.0,73.4,66,29.95,6.2,East,17.3,-,N/A,,Scattered Clouds,80,2013-08-25 20:00:00
5:00 PM,85,74,64,29.96,19,ENE,16.1,,,,Partly Cloudy,70,2013-08-25 21:00:00
5:00 PM,86.0,75.2,70,29.95,6.2,ENE,16.1,-,N/A,,Scattered Clouds,70,2013-08-25 21:00:00
6:00 PM,84.2,73.4,70,29.95,6.2,East,13.8,-,N/A,,Scattered Clouds,80,2013-08-25 22:00:00
7:00 PM,82.4,73.4,74,29.98,6.2,East,15.0,-,N/A,,Scattered Clouds,80,2013-08-25 23:00:00
8:00 PM,81,75,78,30.00,25,East,13.8,,,Rain,Light Rain Showers,80,2013-08-26 00:00:00
8:00 PM,80.6,75.2,84,29.98,6.2,East,13.8,-,N/A,,Scattered Clouds,80,2013-08-26 00:00:00
9:00 PM,80.6,75.2,84,29.98,6.2,ENE,15.0,-,N/A,,Scattered Clouds,70,2013-08-26 01:00:00
10:00 PM,82.4,75.2,79,30.01,6.2,East,12.7,-,N/A,,Partly Cloudy,80,2013-08-26 02:00:00
11:00 PM,82,75,73,30.01,19,East,13.8,,,,Mostly Cloudy,90,2013-08-26 03:00:00
11:00 PM,82.4,75.2,79,30.01,6.2,East,13.8,-,N/A,,Mostly Cloudy,90,2013-08-26 03:00:00